Change the Weather History Date:

Tuesday, April 8, 2014

  Actual Average Record
Temperature  
Mean Temperature 13 °F -  
Max Temperature 19 °F 36 °F 50 °F (1997)
Min Temperature 7 °F 16 °F -9 °F (1999)
Degree Days  
Heating Degree Days 52    
Moisture  
Dew Point 3 °F    
Average Humidity 65    
Maximum Humidity 84    
Minimum Humidity 36    
Precipitation  
Precipitation 0.00 in - - ()
Sea Level Pressure  
Sea Level Pressure 29.64 in    
Wind  
Wind Speed 10 mph (WNW)    
Max Wind Speed 16 mph    
Max Gust Speed 21 mph    
Visibility 9 miles    
Events Snow    
Averages and records for this station are not official NWS values.
T = Trace of Precipitation, MM = Missing Value Source: NWS Daily Summary

Daily Weather History Graph

Daily Weather History Graph

Search for Another Location

Airport or City:

Trip Planner

Search our weather history database for the weather conditions in past years. The results will help you decide how hot, cold, wet, or windy it might be!

Date:

Astronomy

Apr. 08, 2014 Rise Set
Actual Time 6:35 AM AKDT 8:55 PM AKDT
Civil Twilight 5:43 AM AKDT 9:47 PM AKDT
Nautical Twilight 4:33 AM AKDT 10:59 PM AKDT
Astronomical Twilight 2:39 AM AKDT 1:04 AM AKDT
Moon 1:01 PM AKDT (4/8) 4:54 AM AKDT (4/8)
Length of Visible Light 16h 03m
Length of Day
14h 19m
Waxing Gibbous, 64% of the Moon is Illuminated
Apr 8
Waxing Gibbous
Apr 14
Full
Apr 21
Last Quarter
Apr 28
New
May 6
First Quarter

Hourly Weather History & Observations

Time (AKDT) Temp. Windchill Dew Point Humidity Pressure Visibility Wind Dir Wind Speed Gust Speed Precip Events Conditions
12:28 AM 16.0 °F 2.9 °F 12.0 °F 84% 29.41 in 2.5 mi WNW 11.5 mph - 0.00 in Snow Light Snow
12:36 AM 16.0 °F 5.3 °F 12.0 °F 84% 29.41 in 2.5 mi WNW 8.1 mph - 0.00 in Snow Light Snow
12:49 AM 15.8 °F 0.9 °F 10.4 °F 79% 29.42 in 4.0 mi WNW 15.0 mph - 0.00 in Snow Light Snow
12:53 AM 16.0 °F 0.6 °F 10.0 °F 77% 29.51 in 6.0 mi WNW 16.1 mph - 0.00 in Snow Light Snow
1:53 AM 15.1 °F 1.1 °F 10.0 °F 80% 29.53 in 5.0 mi WNW 12.7 mph 20.7 mph 0.00 in Snow Light Snow
2:48 AM 14.0 °F 1.2 °F 8.6 °F 79% 29.45 in 6.0 mi WNW 10.4 mph - 0.00 in   Haze
2:53 AM 14.0 °F 2.0 °F 8.1 °F 77% 29.55 in 6.0 mi WNW 9.2 mph - 0.00 in   Haze
3:41 AM 12.0 °F 0.5 °F 7.0 °F 80% 29.46 in 10.0 mi WNW 8.1 mph - N/A   Overcast
3:53 AM 12.0 °F -1.3 °F 6.1 °F 77% 29.57 in 10.0 mi WNW 10.4 mph - N/A   Overcast
4:53 AM 10.9 °F -1.8 °F 5.0 °F 77% 29.58 in 10.0 mi WNW 9.2 mph - N/A   Overcast
5:53 AM 9.0 °F -2.2 °F 3.0 °F 77% 29.60 in 10.0 mi West 6.9 mph - N/A   Clear
6:53 AM 8.1 °F -3.2 °F 1.0 °F 73% 29.62 in 10.0 mi West 6.9 mph - N/A   Overcast
7:53 AM 8.1 °F -2.0 °F -0.0 °F 70% 29.64 in 10.0 mi West 5.8 mph - N/A   Overcast
8:53 AM 8.1 °F -5.3 °F -0.9 °F 67% 29.66 in 10.0 mi WNW 9.2 mph - N/A   Overcast
9:53 AM 9.0 °F -5.9 °F -0.9 °F 64% 29.68 in 10.0 mi NW 11.5 mph - N/A   Overcast
10:53 AM 10.0 °F -0.9 °F -0.0 °F 64% 29.69 in 10.0 mi West 6.9 mph - N/A   Overcast
11:53 AM 10.9 °F -0.8 °F -0.9 °F 59% 29.70 in 10.0 mi WNW 8.1 mph - N/A   Mostly Cloudy
12:53 PM 12.0 °F -2.0 °F -0.9 °F 56% 29.70 in 10.0 mi NW 11.5 mph - N/A   Overcast
1:53 PM 12.9 °F 1.6 °F -0.0 °F 56% 29.69 in 10.0 mi NW 8.1 mph - N/A   Overcast
2:53 PM 15.1 °F 1.1 °F -0.0 °F 51% 29.70 in 10.0 mi WNW 12.7 mph - N/A   Overcast
3:53 PM 15.1 °F 3.3 °F -0.0 °F 51% 29.70 in 10.0 mi NW 9.2 mph - N/A   Overcast
4:53 PM 14.0 °F 1.2 °F 1.0 °F 56% 29.71 in 10.0 mi NNW 10.4 mph - N/A   Overcast
5:53 PM 15.1 °F 1.8 °F -0.0 °F 51% 29.72 in 10.0 mi NW 11.5 mph - N/A   Overcast
6:53 PM 14.0 °F -0.8 °F 1.0 °F 56% 29.74 in 10.0 mi NNW 13.8 mph - N/A   Overcast
7:53 PM 14.0 °F 2.9 °F -0.0 °F 54% 29.75 in 10.0 mi NW 8.1 mph - N/A   Overcast
8:53 PM 12.0 °F -0.4 °F 1.0 °F 61% 29.77 in 10.0 mi WNW 9.2 mph - N/A   Overcast
9:28 PM 10.9 °F -0.8 °F -0.0 °F 61% 29.66 in 10.0 mi NW 8.1 mph - N/A   Overcast
9:53 PM 10.9 °F 0.2 °F -0.0 °F 61% 29.80 in 10.0 mi NW 6.9 mph - N/A   Overcast
10:53 PM 10.0 °F -3.7 °F -0.9 °F 61% 29.82 in 10.0 mi NW 10.4 mph - N/A   Overcast
11:53 PM 9.0 °F -3.2 °F -4.0 °F 56% 29.83 in 10.0 mi WNW 8.1 mph - N/A   Overcast